Tracking 19246 objects as of 21-Sep-2018
HD Live streaming from Space Station
objects crossing your sky now

FENGYUN 1C DEB

Track FENGYUN 1C DEB now!
10-day predictions


NORAD ID: 30919
Int'l Code: 1999-025AZH
Perigee: 763.6 km
Apogee: 840.5 km
Inclination: 98.8 °
Period: 100.8 minutes
Semi major axis: 7173 km
RCS: 0.0133 m2 (small)
Launch date: May 10, 1999
Source: People's Republic of China (PRC)
Launch site: Taiyaun Space Center, China (TSC)

Note: This is SATELLITE DEBRIS
aabbcc
Your satellite tracking list
Your tracking list is empty




NASA's NSSDC Master Catalog

Two Line Element Set (TLE):
1 30919U 99025AZH 18262.91675594 +.00000927 +00000-0 +37860-3 0  9997
2 30919 098.8103 333.9495 0053608 260.2828 159.3719 14.29038187597435
Source of the keplerian elements: AFSPC